Location: Melque
(41.0517°N, 4.4694°W)
Time: 18:28:55
(UTC+00:00)

Meteor 1-20 Rocket - Pass Details

Date: 12 March 2026
Orbit: 817 x 891 km, 81.2° (Epoch: 14 April)

Event Time Altitude Azimuth Distance (km) Brightness Sun altitude
Rises 06:01:58 0° 348° (NNW) 3,464 7.3 -7.0°
Reaches altitude 10° 06:04:26 10° 347° (NNW) 2,512 6.6 -6.6°
Maximum altitude 06:10:07 75° 263° (W) 885 4.2 -5.5°
Drops below altitude 10° 06:15:38 10° 179° (S) 2,445 6.6 -4.4°
Sets 06:18:01 0° 178° (S) 3,365 7.4 -4.0°
